Stündliche Wetter Abapo

Heute, 27 Juli, Dienstag

Zeit Temperatur Niederschläge Wind Luftdruck Luftfeuchtigkeit
00:00 +21°C° 0 mm 3 m/S 713 mmHg 50%
01:00 +21°C° 0 mm 3 m/S 713 mmHg 51%
02:00 +20°C° 0 mm 2 m/S 714 mmHg 51%
03:00 +20°C° 0 mm 2 m/S 714 mmHg 50%
04:00 +19°C° 0 mm 3 m/S 715 mmHg 48%
05:00 +19°C° 0 mm 3 m/S 715 mmHg 46%
06:00 +18°C° 0 mm 4 m/S 716 mmHg 44%
07:00 +18°C° 0 mm 4 m/S 717 mmHg 41%
08:00 +18°C° 0 mm 4 m/S 718 mmHg 38%
09:00 +18°C° 0 mm 4 m/S 718 mmHg 37%
10:00 +18°C° 0 mm 4 m/S 719 mmHg 35%
11:00 +18°C° 0 mm 4 m/S 719 mmHg 33%
12:00 +18°C° 0 mm 4 m/S 719 mmHg 31%
13:00 +18°C° 0 mm 4 m/S 718 mmHg 29%
14:00 +18°C° 0 mm 4 m/S 717 mmHg 27%
15:00 +18°C° 0 mm 3 m/S 717 mmHg 26%
16:00 +18°C° 0 mm 3 m/S 716 mmHg 25%
17:00 +19°C° 0 mm 2 m/S 716 mmHg 25%
18:00 +18°C° 0 mm 2 m/S 716 mmHg 26%
19:00 +17°C° 0 mm 2 m/S 717 mmHg 26%
20:00 +17°C° 0 mm 2 m/S 717 mmHg 27%
21:00 +18°C° 0 mm 1 m/S 717 mmHg 28%
22:00 +16°C° 0 mm 1 m/S 718 mmHg 29%
23:00 +16°C° 0 mm 1 m/S 718 mmHg 29%

Morgen, 28 Juli, Mittwoch

Zeit Temperatur Niederschläge Wind Luftdruck Luftfeuchtigkeit
00:00 +16°C° 0 mm 1 m/S 718 mmHg 30%
01:00 +15°C° 0 mm 1 m/S 717 mmHg 31%
02:00 +15°C° 0 mm 1 m/S 717 mmHg 31%
03:00 +15°C° 0 mm 1 m/S 717 mmHg 32%
04:00 +15°C° 0 mm 1 m/S 717 mmHg 33%
05:00 +14°C° 0 mm 1 m/S 717 mmHg 35%
06:00 +15°C° 0 mm 2 m/S 718 mmHg 33%
07:00 +14°C° 0 mm 3 m/S 719 mmHg 32%
08:00 +16°C° 0 mm 3 m/S 720 mmHg 31%
09:00 +17°C° 0 mm 4 m/S 720 mmHg 27%
10:00 +18°C° 0 mm 4 m/S 720 mmHg 23%
11:00 +19°C° 0 mm 4 m/S 721 mmHg 19%
12:00 +20°C° 0 mm 4 m/S 720 mmHg 18%
13:00 +21°C° 0 mm 4 m/S 719 mmHg 18%
14:00 +21°C° 0 mm 4 m/S 718 mmHg 17%
15:00 +21°C° 0 mm 4 m/S 718 mmHg 17%
16:00 +20°C° 0 mm 4 m/S 718 mmHg 18%
17:00 +19°C° 0 mm 4 m/S 718 mmHg 18%
18:00 +18°C° 0 mm 4 m/S 719 mmHg 20%
19:00 +16°C° 0 mm 3 m/S 720 mmHg 22%
20:00 +13°C° 0 mm 3 m/S 720 mmHg 24%
21:00 +14°C° 0 mm 2 m/S 721 mmHg 25%
22:00 +14°C° 0 mm 2 m/S 721 mmHg 26%
23:00 +13°C° 0 mm 2 m/S 721 mmHg 27%

übermorgen, 29 Juli, Donnerstag

Zeit Temperatur Niederschläge Wind Luftdruck Luftfeuchtigkeit
00:00 +13°C° 0 mm 2 m/S 721 mmHg 28%
01:00 +12°C° 0 mm 2 m/S 721 mmHg 29%
02:00 +12°C° 0 mm 1 m/S 720 mmHg 31%
03:00 +10°C° 0 mm 1 m/S 720 mmHg 33%
04:00 +9°C° 0 mm 1 m/S 720 mmHg 36%
05:00 +8°C° 0 mm 1 m/S 720 mmHg 39%
06:00 +9°C° 0 mm 1 m/S 720 mmHg 36%
07:00 +10°C° 0 mm 1 m/S 720 mmHg 34%
08:00 +11°C° 0 mm 1 m/S 721 mmHg 32%
09:00 +14°C° 0 mm 1 m/S 721 mmHg 27%
10:00 +16°C° 0 mm 1 m/S 721 mmHg 23%
11:00 +19°C° 0 mm 2 m/S 720 mmHg 18%
12:00 +20°C° 0 mm 2 m/S 719 mmHg 18%
13:00 +21°C° 0 mm 2 m/S 718 mmHg 17%
14:00 +21°C° 0 mm 2 m/S 717 mmHg 16%
15:00 +21°C° 0 mm 2 m/S 717 mmHg 17%
16:00 +20°C° 0 mm 2 m/S 717 mmHg 18%
17:00 +20°C° 0 mm 2 m/S 716 mmHg 18%
18:00 +18°C° 0 mm 2 m/S 716 mmHg 22%
19:00 +15°C° 0 mm 1 m/S 717 mmHg 25%
20:00 +13°C° 0 mm 1 m/S 717 mmHg 29%
21:00 +12°C° 0 mm 1 m/S 717 mmHg 31%
22:00 +12°C° 0 mm 1 m/S 717 mmHg 32%
23:00 +11°C° 0 mm 1 m/S 718 mmHg 34%

30 Juli, Freitag

Zeit Temperatur Niederschläge Wind Luftdruck Luftfeuchtigkeit
00:00 +10°C° 0 mm 1 m/S 718 mmHg 35%
01:00 +10°C° 0 mm 1 m/S 717 mmHg 37%
02:00 +9°C° 0 mm 1 m/S 717 mmHg 38%
03:00 +9°C° 0 mm 1 m/S 717 mmHg 39%
04:00 +9°C° 0 mm 1 m/S 717 mmHg 39%
05:00 +9°C° 0 mm 1 m/S 717 mmHg 40%
06:00 +10°C° 0 mm 1 m/S 717 mmHg 37%
07:00 +11°C° 0 mm 1 m/S 718 mmHg 35%
08:00 +11°C° 0 mm 0 m/S 718 mmHg 33%
09:00 +14°C° 0 mm 1 m/S 719 mmHg 28%
10:00 +18°C° 0 mm 1 m/S 719 mmHg 24%
11:00 +21°C° 0 mm 1 m/S 719 mmHg 19%
12:00 +22°C° 0 mm 1 m/S 718 mmHg 19%
13:00 +23°C° 0 mm 2 m/S 717 mmHg 18%
14:00 +24°C° 0 mm 2 m/S 716 mmHg 17%
15:00 +23°C° 0 mm 2 m/S 716 mmHg 18%
16:00 +23°C° 0 mm 2 m/S 715 mmHg 19%
17:00 +21°C° 0 mm 2 m/S 715 mmHg 20%
18:00 +20°C° 0 mm 1 m/S 715 mmHg 24%
19:00 +16°C° 0 mm 1 m/S 715 mmHg 27%
20:00 +14°C° 0 mm 1 m/S 715 mmHg 31%
21:00 +13°C° 0 mm 1 m/S 716 mmHg 33%
22:00 +13°C° 0 mm 1 m/S 716 mmHg 34%
23:00 +12°C° 0 mm 1 m/S 716 mmHg 35%

31 Juli, Samstag

Zeit Temperatur Niederschläge Wind Luftdruck Luftfeuchtigkeit
00:00 +12°C° 0 mm 1 m/S 716 mmHg 36%
01:00 +12°C° 0 mm 1 m/S 716 mmHg 36%
02:00 +12°C° 0 mm 1 m/S 715 mmHg 37%
03:00 +11°C° 0 mm 1 m/S 715 mmHg 38%
04:00 +11°C° 0 mm 1 m/S 715 mmHg 39%
05:00 +10°C° 0 mm 1 m/S 715 mmHg 40%
06:00 +11°C° 0 mm 1 m/S 716 mmHg 37%
07:00 +12°C° 0 mm 0 m/S 716 mmHg 35%
08:00 +13°C° 0 mm 0 m/S 717 mmHg 33%
09:00 +18°C° 0 mm 1 m/S 717 mmHg 27%
10:00 +21°C° 0 mm 1 m/S 717 mmHg 21%
11:00 +24°C° 0 mm 2 m/S 717 mmHg 15%
12:00 +25°C° 0 mm 2 m/S 716 mmHg 15%
13:00 +26°C° 0 mm 2 m/S 715 mmHg 15%
14:00 +27°C° 0 mm 2 m/S 714 mmHg 15%
15:00 +26°C° 0 mm 2 m/S 714 mmHg 15%
16:00 +26°C° 0 mm 2 m/S 714 mmHg 16%
17:00 +26°C° 0 mm 2 m/S 714 mmHg 17%
18:00 +23°C° 0 mm 2 m/S 715 mmHg 20%
19:00 +20°C° 0 mm 2 m/S 716 mmHg 23%
20:00 +18°C° 0 mm 2 m/S 717 mmHg 26%
21:00 +18°C° 0 mm 2 m/S 718 mmHg 25%
22:00 +18°C° 0 mm 2 m/S 718 mmHg 25%
23:00 +18°C° 0 mm 2 m/S 719 mmHg 24%

1 August, Sonntag

Zeit Temperatur Niederschläge Wind Luftdruck Luftfeuchtigkeit
00:00 +17°C° 0 mm 2 m/S 719 mmHg 26%
01:00 +18°C° 0 mm 1 m/S 719 mmHg 28%
02:00 +16°C° 0 mm 1 m/S 719 mmHg 30%
03:00 +16°C° 0 mm 1 m/S 719 mmHg 32%
04:00 +16°C° 0 mm 1 m/S 720 mmHg 34%
05:00 +16°C° 0 mm 1 m/S 720 mmHg 36%
06:00 +16°C° 0 mm 1 m/S 720 mmHg 37%
07:00 +18°C° 0 mm 1 m/S 721 mmHg 38%
08:00 +18°C° 0 mm 1 m/S 722 mmHg 39%
09:00 +19°C° 0 mm 2 m/S 722 mmHg 34%
10:00 +20°C° 0 mm 2 m/S 722 mmHg 29%
11:00 +22°C° 0 mm 3 m/S 723 mmHg 24%
12:00 +24°C° 0 mm 3 m/S 722 mmHg 22%
13:00 +25°C° 0 mm 3 m/S 721 mmHg 19%
14:00 +26°C° 0 mm 3 m/S 720 mmHg 17%
15:00 +25°C° 0 mm 3 m/S 719 mmHg 17%
16:00 +24°C° 0 mm 2 m/S 719 mmHg 17%
17:00 +24°C° 0 mm 2 m/S 719 mmHg 18%
18:00 +20°C° 0 mm 2 m/S 719 mmHg 21%
19:00 +19°C° 0 mm 1 m/S 720 mmHg 25%
20:00 +15°C° 0 mm 1 m/S 720 mmHg 29%
21:00 +14°C° 0 mm 1 m/S 720 mmHg 30%
22:00 +14°C° 0 mm 1 m/S 720 mmHg 32%
23:00 +13°C° 0 mm 2 m/S 721 mmHg 33%
Mehr zeigen

Wir brauchen deine Erlaubnis

Meteoprog und unser Service Anbieter werden persönliche Daten aufbewahren, so wie Cookies, Geräte Bezeichnung oder ähnliche Technologien von deinem Gerät und Prozess, so wie Persönliche Daten Inhalte und Werbungen, genauso wie social Media und den Verkehr zu analysieren.

  • Aufbewahrung und/oder Zugang zu deiner Geräte Informationen.

    Cookies, Geräte Bezeichnung oder andere Informationen, können aufbewahrt oder Zugang zu deinem Gerät erhalten, für den Grund, der oben angegeben wird.

  • Personalisierte Werbung und Inhalte, Messungen, Einblick in das Publikum und Produkt Entwicklung.

    Werbungen und Inhalte können personalisiert werden, basierend auf ein Profil. Mehr Daten können besser personalisierte Werbungen und Inhalte hinzufügen. Werbung und Inhalte können gezeigt und gemessen werden. Einblicke über das Publikum, welche die Werbung gesehen haben und den Inhalt, können abgeleitet werden. So wie Daten können genutzt werden, um es zu verbessern oder die Benutzer Erfahrung zu verbessern das System und die Software.

Wenn du “Ich stimme zu” klickst, erlaubst du uns, die Cookies zu benutzen die Geräte Bezeichnung, den Web oder ähnliche Technologien zu benutzen. Deine Settings, können in deinem Gerät bei deinem Browser geändert werden.

Für den bestimmten Zweck, berechtigten Interessen beruhen darauf, mehr als auf den Inhalt. Du kannst mehr darüber in unseren Privaten und Cookie Politik lesen.